Home   Weather   Nancy   Past weeks

Flag for France Past Weather in Nancy, Lorraine, France — Yesterday and Last 2 Weeks

Now
43 °F

Passing clouds.


Feels Like: 39 °F
Forecast: 32 / 64 °F
Wind: 7 mph from North

Location: Nancy / Ochey

Current Time: Apr 23, 2017 at 10:33:09 am

Latest Report: Apr 23, 2017 at 9:30 am


Visibility: N/A

Pressure: 30.27 "Hg

Humidity: 76%

Dew Point: 36 °F

Location of NancyLocation

Past Weather in Nancy — Graph

°F

Nancy Temperature Yesterday

Maximum temperature yesterday: 57 °F (at 2:30 pm)
Minimum temperature yesterday: 41 °F (at 11:30 pm)
Average temperature yesterday: 48 °F

High & Low Weather Summary for the Past Weeks

 TemperatureHumidityPressure
High73 °F (Apr 9, 3:30 pm)100% (Apr 13, 6:00 am)30.57 "Hg (Apr 13, 6:00 am)
Low27 °F (Apr 20, 6:30 am)21% (Apr 21, 2:30 pm)30.01 "Hg (Apr 12, 6:00 pm)
Average48 °F68%30.21 "Hg
* Reported Apr 8 9:00 am — Apr 23 9:00 am, Nancy, Weather by CustomWeather, © 2017

Note: Actual official high and low records may vary slightly from our data, if they occured in-between our weather recording intervals... More about our weather records

Advertising

Nancy Weather History for the Previous 24 Hours

Scroll right to see more
 ConditionsComfort  
Time TempWeatherWind HumidityBarometerVisibility
9:00 am
Sun, Apr 23
41 °FSunny.7 mph81%30.27 "Hg10 mi
8:30 am39 °FPassing clouds.5 mph87%30.27 "HgN/A
8:00 am36 °FSunny.3 mph100%30.27 "Hg10 mi
7:30 am34 °FSunny.5 mph100%30.27 "Hg10 mi
7:00 am32 °FSunny.5 mph93%30.27 "Hg10 mi
6:30 am32 °FClear.3 mph100%30.24 "Hg10 mi
6:00 am34 °FClear.2 mph93%30.24 "Hg10 mi
5:30 am34 °FClear.5 mph93%30.24 "Hg10 mi
5:00 am36 °FClear.5 mph93%30.24 "Hg10 mi
4:30 am36 °FClear.3 mph93%30.24 "Hg10 mi
4:00 am36 °FClear.2 mph93%30.24 "Hg10 mi
3:30 am36 °FClear.2 mph93%30.24 "Hg10 mi
3:00 am37 °FClear.2 mph93%30.24 "Hg10 mi
2:30 am37 °FClear.2 mph100%30.27 "Hg10 mi
2:00 am37 °FClear.3 mph100%30.27 "Hg10 mi
1:30 am39 °FClear.3 mph93%30.27 "Hg6 mi
1:00 am39 °FClear.3 mph100%30.27 "Hg6 mi
12:30 am39 °FClear.2 mph100%30.27 "Hg10 mi
12:00 am41 °FClear.3 mph100%30.27 "Hg10 mi
11:30 pm
Sat, Apr 22
41 °FClear.2 mph100%30.27 "Hg10 mi
11:00 pm43 °FClear.No wind93%30.24 "Hg10 mi
10:30 pm43 °FClear.No wind93%30.24 "Hg10 mi
10:00 pm43 °FPassing clouds.No wind93%30.24 "HgN/A
9:30 pm43 °FOvercast.2 mph93%30.24 "HgN/A
8:30 pm46 °FMostly cloudy.2 mph87%30.24 "HgN/A
8:00 pm48 °FLight rain. Mostly cloudy.5 mph76%30.24 "HgN/A
7:30 pm48 °FMostly cloudy.6 mph76%30.24 "HgN/A
7:00 pm48 °FMore clouds than sun.6 mph76%30.24 "HgN/A
6:30 pm48 °FPartly sunny.8 mph82%30.24 "HgN/A
6:00 pm50 °FOvercast.10 mph76%30.24 "HgN/A
5:30 pm50 °FOvercast.9 mph76%30.24 "HgN/A
5:00 pm52 °FMostly cloudy.14 mph72%30.24 "HgN/A
4:30 pm54 °FMostly cloudy.12 mph63%30.24 "HgN/A
4:00 pm54 °FMostly cloudy.7 mph58%30.24 "HgN/A
3:30 pm55 °FOvercast.10 mph55%30.24 "HgN/A
3:00 pm55 °FMore clouds than sun.7 mph55%30.24 "HgN/A
2:30 pm57 °FPartly sunny.9 mph51%30.24 "HgN/A
2:00 pm55 °FMore clouds than sun.9 mph51%30.27 "HgN/A
1:30 pm55 °FOvercast.10 mph55%30.27 "HgN/A
1:00 pm55 °FOvercast.10 mph55%30.27 "HgN/A
12:30 pm54 °FOvercast.6 mph67%30.27 "HgN/A
12:00 pm52 °FBroken clouds.7 mph77%30.30 "HgN/A
11:30 am50 °FBroken clouds.6 mph76%30.30 "HgN/A
11:00 am48 °FOvercast.3 mph82%30.30 "HgN/A
10:30 am48 °FOvercast.3 mph82%30.30 "HgN/A
10:00 am48 °FOvercast.3 mph76%30.30 "HgN/A
Weather by CustomWeather, © 2017

See weather overviewHow to use our weather pages